• In Uzbekistan
  • List of Countries
  • For 7 days
  • Water Temperature
  • Satellite Maps
  • Weather Map
  • Weather Widgets
  • user-avatar
    Login

    Hourly Weather Campo Grande

    Today, 20 August, Sunday

    Time Temperature Precipitation Wind Pressure Humidity
    00:00 +25°C° 0.2 mm 2 mps 708 mmHg 67%
    01:00 +25°C° 0.2 mm 2 mps 708 mmHg 69%
    02:00 +24°C° 0.2 mm 2 mps 708 mmHg 70%
    03:00 +24°C° 0.6 mm 2 mps 708 mmHg 73%
    04:00 +23°C° 0.6 mm 2 mps 708 mmHg 77%
    05:00 +23°C° 0.6 mm 2 mps 708 mmHg 80%
    06:00 +24°C° 0.7 mm 2 mps 709 mmHg 79%
    07:00 +24°C° 0.7 mm 3 mps 710 mmHg 77%
    08:00 +25°C° 0.7 mm 3 mps 711 mmHg 76%
    09:00 +26°C° 1 mm 4 mps 711 mmHg 72%
    10:00 +27°C° 1 mm 5 mps 712 mmHg 68%
    11:00 +28°C° 1 mm 5 mps 712 mmHg 65%
    12:00 +28°C° 1.8 mm 5 mps 712 mmHg 66%
    13:00 +27°C° 1.8 mm 5 mps 712 mmHg 67%
    14:00 +27°C° 1.8 mm 5 mps 712 mmHg 68%
    15:00 +26°C° 0.9 mm 5 mps 712 mmHg 71%
    16:00 +25°C° 0.9 mm 5 mps 712 mmHg 75%
    17:00 +22°C° 0.9 mm 5 mps 713 mmHg 78%
    18:00 +21°C° 0 mm 5 mps 713 mmHg 79%
    19:00 +21°C° 0 mm 5 mps 713 mmHg 80%
    20:00 +20°C° 0 mm 5 mps 714 mmHg 82%
    21:00 +19°C° 0 mm 5 mps 714 mmHg 81%
    22:00 +19°C° 0 mm 5 mps 714 mmHg 80%
    23:00 +17°C° 0 mm 5 mps 714 mmHg 80%

    Tomorrow, 21 August, Monday

    Time Temperature Precipitation Wind Pressure Humidity
    00:00 +16°C° 0 mm 5 mps 714 mmHg 78%
    01:00 +15°C° 0 mm 5 mps 714 mmHg 77%
    02:00 +14°C° 0 mm 5 mps 714 mmHg 75%
    03:00 +14°C° 0 mm 5 mps 714 mmHg 75%
    04:00 +13°C° 0 mm 5 mps 714 mmHg 75%
    05:00 +13°C° 0 mm 5 mps 714 mmHg 74%
    06:00 +13°C° 0 mm 5 mps 715 mmHg 73%
    07:00 +14°C° 0 mm 5 mps 715 mmHg 73%
    08:00 +14°C° 0 mm 5 mps 715 mmHg 72%
    09:00 +16°C° 0 mm 5 mps 716 mmHg 67%
    10:00 +19°C° 0 mm 5 mps 716 mmHg 63%
    11:00 +22°C° 0 mm 5 mps 716 mmHg 58%
    12:00 +22°C° 0 mm 5 mps 716 mmHg 55%
    13:00 +23°C° 0 mm 5 mps 715 mmHg 53%
    14:00 +25°C° 0 mm 5 mps 715 mmHg 50%
    15:00 +23°C° 0 mm 4 mps 714 mmHg 55%
    16:00 +22°C° 0 mm 4 mps 714 mmHg 60%
    17:00 +21°C° 0 mm 3 mps 714 mmHg 65%
    18:00 +20°C° 0 mm 3 mps 714 mmHg 69%
    19:00 +19°C° 0 mm 3 mps 715 mmHg 73%
    20:00 +18°C° 0 mm 3 mps 715 mmHg 77%
    21:00 +18°C° 0 mm 4 mps 715 mmHg 77%
    22:00 +18°C° 0 mm 4 mps 715 mmHg 77%
    23:00 +18°C° 0 mm 4 mps 715 mmHg 77%

    Day after tomorrow, 22 August, Tuesday

    Time Temperature Precipitation Wind Pressure Humidity
    00:00 +17°C° 0 mm 5 mps 714 mmHg 78%
    01:00 +16°C° 0 mm 5 mps 714 mmHg 79%
    02:00 +16°C° 0 mm 6 mps 713 mmHg 80%
    03:00 +16°C° 0 mm 6 mps 713 mmHg 79%
    04:00 +15°C° 0 mm 6 mps 713 mmHg 79%
    05:00 +14°C° 0 mm 6 mps 713 mmHg 79%
    06:00 +15°C° 0 mm 6 mps 713 mmHg 76%
    07:00 +16°C° 0 mm 6 mps 714 mmHg 73%
    08:00 +16°C° 0 mm 7 mps 714 mmHg 70%
    09:00 +19°C° 0 mm 6 mps 714 mmHg 66%
    10:00 +21°C° 0 mm 6 mps 714 mmHg 62%
    11:00 +23°C° 0 mm 5 mps 714 mmHg 58%
    12:00 +25°C° 0.2 mm 5 mps 713 mmHg 57%
    13:00 +26°C° 0.2 mm 5 mps 713 mmHg 56%
    14:00 +27°C° 0.2 mm 4 mps 712 mmHg 54%
    15:00 +26°C° 0.2 mm 4 mps 711 mmHg 58%
    16:00 +25°C° 0.2 mm 4 mps 711 mmHg 62%
    17:00 +25°C° 0.2 mm 3 mps 710 mmHg 66%
    18:00 +23°C° 0 mm 4 mps 711 mmHg 68%
    19:00 +22°C° 0 mm 4 mps 711 mmHg 70%
    20:00 +21°C° 0 mm 4 mps 711 mmHg 72%
    21:00 +21°C° 0 mm 4 mps 711 mmHg 71%
    22:00 +21°C° 0 mm 4 mps 711 mmHg 71%
    23:00 +21°C° 0 mm 4 mps 711 mmHg 70%

    23 August, Wednesday

    Time Temperature Precipitation Wind Pressure Humidity
    00:00 +21°C° 0 mm 4 mps 710 mmHg 70%
    01:00 +21°C° 0 mm 4 mps 710 mmHg 69%
    02:00 +21°C° 0 mm 5 mps 709 mmHg 69%
    03:00 +21°C° 0 mm 5 mps 709 mmHg 69%
    04:00 +21°C° 0 mm 5 mps 709 mmHg 69%
    05:00 +21°C° 0 mm 5 mps 709 mmHg 70%
    06:00 +22°C° 0 mm 6 mps 710 mmHg 66%
    07:00 +23°C° 0 mm 6 mps 711 mmHg 63%
    08:00 +24°C° 0 mm 7 mps 711 mmHg 60%
    09:00 +27°C° 0 mm 6 mps 711 mmHg 54%
    10:00 +29°C° 0 mm 6 mps 711 mmHg 47%
    11:00 +32°C° 0 mm 6 mps 712 mmHg 41%
    12:00 +33°C° 0 mm 6 mps 711 mmHg 38%
    13:00 +34°C° 0 mm 5 mps 710 mmHg 35%
    14:00 +35°C° 0 mm 5 mps 710 mmHg 32%
    15:00 +34°C° 0 mm 4 mps 710 mmHg 35%
    16:00 +33°C° 0 mm 3 mps 710 mmHg 39%
    17:00 +31°C° 0 mm 2 mps 709 mmHg 43%
    18:00 +29°C° 0 mm 3 mps 710 mmHg 45%
    19:00 +28°C° 0 mm 4 mps 710 mmHg 48%
    20:00 +27°C° 0 mm 5 mps 710 mmHg 50%
    21:00 +27°C° 0.2 mm 5 mps 711 mmHg 51%
    22:00 +27°C° 0.2 mm 6 mps 711 mmHg 51%
    23:00 +26°C° 0.2 mm 7 mps 711 mmHg 52%

    24 August, Thursday

    Time Temperature Precipitation Wind Pressure Humidity
    00:00 +26°C° 0.1 mm 6 mps 711 mmHg 51%
    01:00 +26°C° 0.1 mm 5 mps 711 mmHg 50%
    02:00 +26°C° 0.1 mm 4 mps 711 mmHg 50%
    03:00 +26°C° 0.1 mm 4 mps 711 mmHg 51%
    04:00 +26°C° 0.1 mm 4 mps 711 mmHg 53%
    05:00 +25°C° 0.1 mm 4 mps 711 mmHg 54%
    06:00 +25°C° 0 mm 4 mps 711 mmHg 54%
    07:00 +26°C° 0 mm 5 mps 712 mmHg 53%
    08:00 +26°C° 0 mm 5 mps 712 mmHg 53%
    09:00 +27°C° 0 mm 5 mps 712 mmHg 49%
    10:00 +28°C° 0 mm 5 mps 712 mmHg 46%
    11:00 +30°C° 0 mm 5 mps 712 mmHg 42%
    12:00 +32°C° 0 mm 5 mps 712 mmHg 38%
    13:00 +33°C° 0 mm 5 mps 711 mmHg 34%
    14:00 +35°C° 0 mm 5 mps 711 mmHg 31%
    15:00 +34°C° 0 mm 4 mps 711 mmHg 34%
    16:00 +31°C° 0 mm 3 mps 710 mmHg 38%
    17:00 +30°C° 0 mm 2 mps 710 mmHg 41%
    18:00 +29°C° 0 mm 3 mps 710 mmHg 42%
    19:00 +28°C° 0 mm 3 mps 710 mmHg 44%
    20:00 +27°C° 0 mm 4 mps 710 mmHg 45%
    21:00 +26°C° 0 mm 4 mps 711 mmHg 45%
    22:00 +26°C° 0 mm 4 mps 711 mmHg 45%
    23:00 +26°C° 0 mm 5 mps 711 mmHg 45%

    25 August, Friday

    Time Temperature Precipitation Wind Pressure Humidity
    00:00 +25°C° 0 mm 5 mps 710 mmHg 45%
    01:00 +25°C° 0 mm 4 mps 710 mmHg 46%
    02:00 +25°C° 0 mm 4 mps 710 mmHg 46%
    03:00 +23°C° 0 mm 4 mps 710 mmHg 46%
    04:00 +23°C° 0 mm 4 mps 710 mmHg 47%
    05:00 +22°C° 0 mm 4 mps 710 mmHg 47%
    06:00 +25°C° 0 mm 5 mps 711 mmHg 46%
    07:00 +26°C° 0 mm 5 mps 711 mmHg 44%
    08:00 +27°C° 0 mm 5 mps 712 mmHg 43%
    09:00 +29°C° 0 mm 5 mps 712 mmHg 39%
    10:00 +32°C° 0 mm 5 mps 712 mmHg 34%
    11:00 +34°C° 0 mm 5 mps 712 mmHg 30%
    12:00 +35°C° 0 mm 4 mps 711 mmHg 28%
    13:00 +36°C° 0 mm 4 mps 710 mmHg 26%
    14:00 +36°C° 0 mm 3 mps 710 mmHg 24%
    15:00 +35°C° 0 mm 3 mps 710 mmHg 27%
    16:00 +34°C° 0 mm 2 mps 709 mmHg 31%
    17:00 +31°C° 0 mm 2 mps 709 mmHg 34%
    18:00 +30°C° 0 mm 2 mps 710 mmHg 36%
    19:00 +29°C° 0 mm 2 mps 710 mmHg 38%
    20:00 +27°C° 0 mm 2 mps 710 mmHg 40%
    21:00 +27°C° 0 mm 3 mps 710 mmHg 42%
    22:00 +27°C° 0 mm 3 mps 710 mmHg 43%
    23:00 +26°C° 0 mm 4 mps 711 mmHg 45%
    Show more